Weather History for Burlington Piers, ON

Change the Weather History Date:

Sunday, November 25, 2012

  Actual Average Record
Temperature  
Mean Temperature 33 °F -  
Max Temperature 36 °F - - ()
Min Temperature 30 °F - - ()
Degree Days  
Heating Degree Days 32    
Moisture  
Dew Point 24 °F    
Average Humidity 67    
Maximum Humidity 83    
Minimum Humidity 47    
Precipitation  
Precipitation 0.00 in - - ()
Sea Level Pressure  
Sea Level Pressure 29.89 in    
Wind  
Wind Speed 8 mph ()    
Max Wind Speed 12 mph    
Max Gust Speed 18 mph    
T = Trace of Precipitation, MM = Missing Value Source: Averaged Metar Reports

Daily Weather History Graph

Daily Weather History Graph

Search for Another Location

Airport:

Trip Planner

Search our weather history database for the weather conditions in past years. The results will help you decide how hot, cold, wet, or windy it might be!

Date:

Astronomy

Nov. 25, 2012 Rise Set
Actual Time 7:25 AM EST 4:47 PM EST
Civil Twilight 6:53 AM EST 5:18 PM EST
Nautical Twilight 6:18 AM EST 5:53 PM EST
Astronomical Twilight 5:44 AM EST 6:27 PM EST
Moon 3:05 PM EST 4:34 AM EST
Length of Visible Light 10h 24m
Length of Day
9h 21m
Waxing Gibbous, 93% of the Moon is Illuminated
Nov 25
Waxing Gibbous
Nov 28
Full
Dec 6
Last Quarter
Dec 13
New
Dec 20
First Quarter

Hourly Weather History & Observations

Time (EST) Temp. Windchill Dew Point Humidity Pressure Visibility Wind Dir Wind Speed Gust Speed Precip Events Conditions
12:00 AM 33.8 °F 26.4 °F 17.8 °F 52% 29.96 in - West 9.2 mph 17.3 mph N/A   Unknown
1:00 AM 33 °F - 21 °F 48% 29.96 in - WSW 8.1 mph - -  
1:00 AM 33.3 °F 26.4 °F 20.7 °F 60% 29.96 in - WSW 8.1 mph - N/A   Unknown
2:00 AM 33.1 °F 26.1 °F 21.6 °F 63% 29.95 in - WSW 8.1 mph - N/A   Unknown
3:00 AM 33.4 °F 25.9 °F 21.7 °F 62% 29.95 in - WSW 9.2 mph - N/A   Unknown
4:00 AM 33.6 °F 26.2 °F 23.7 °F 67% 29.94 in - WSW 9.2 mph - N/A   Unknown
5:00 AM 33.1 °F 24.9 °F 21.9 °F 64% 29.94 in - WSW 10.4 mph 17.3 mph N/A   Unknown
6:00 AM 33.1 °F 24.9 °F 22.8 °F 66% 29.92 in - WSW 10.4 mph - N/A   Unknown
7:00 AM 33 °F - 20 °F 47% 29.91 in - WSW 10.4 mph - -  
7:00 AM 31.3 °F 22.7 °F 20.5 °F 64% 29.91 in - WSW 10.4 mph - N/A   Unknown
8:00 AM 31.3 °F 22.1 °F 21.9 °F 68% 29.90 in - SW 11.5 mph - N/A   Unknown
9:00 AM 31.6 °F 23.1 °F 24.6 °F 75% 29.91 in - WSW 10.4 mph 17.3 mph N/A   Unknown
10:00 AM 30.2 °F 21.3 °F 25.7 °F 83% 29.89 in - WSW 10.4 mph - N/A   Unknown
11:00 AM 31.6 °F 23.7 °F 25.7 °F 79% 29.88 in - WSW 9.2 mph - N/A   Unknown
12:00 PM 33.6 °F 26.8 °F 27.9 °F 79% 29.86 in - SW 8.1 mph - N/A   Unknown
1:00 PM 34 °F - 27 °F 65% 29.83 in - SW 8.1 mph - -  
1:00 PM 34.2 °F 27.5 °F 26.6 °F 74% 29.83 in - SW 8.1 mph - N/A   Unknown
2:00 PM 34.2 °F 26.2 °F 24.1 °F 67% 29.82 in - WSW 10.4 mph - N/A   Unknown
3:00 PM 34.7 °F 26.9 °F 24.8 °F 67% 29.81 in - WSW 10.4 mph 18.4 mph N/A   Unknown
4:00 PM 34.5 °F 27.3 °F 24.8 °F 68% 29.81 in - West 9.2 mph - N/A   Unknown
5:00 PM 35.1 °F 27.9 °F 25.9 °F 69% 29.82 in - WSW 9.2 mph - N/A   Unknown
6:00 PM 35.2 °F 28.8 °F 26.8 °F 71% 29.84 in - WSW 8.1 mph - N/A   Unknown
7:00 PM 35 °F - 27 °F 64% 29.85 in - WSW 6.9 mph - -  
7:00 PM 35.1 °F 29.3 °F 27.3 °F 73% 29.85 in - WSW 6.9 mph - N/A   Unknown
8:00 PM 35.1 °F 27.9 °F 27.1 °F 73% 29.86 in - WSW 9.2 mph - N/A   Unknown
9:00 PM 35.2 °F 28.8 °F 27.3 °F 73% 29.88 in - WSW 8.1 mph - N/A   Unknown
10:00 PM 36.1 °F 29.3 °F 28.0 °F 72% 29.88 in - SW 9.2 mph - N/A   Unknown
11:00 PM 36.5 °F 29.2 °F 27.9 °F 71% 29.88 in - SW 10.4 mph - N/A   Unknown